Weather History for Olathe, KS

Change the Weather History Date:

Monday, November 25, 2013

  Actual Average Record
Temperature  
Mean Temperature 31 °F 39 °F  
Max Temperature 35 °F 49 °F 71 °F (1990)
Min Temperature 26 °F 30 °F 10 °F (1950)
Degree Days  
Heating Degree Days 34 26  
Month to date heating degree days 552 496  
Since 1 July heating degree days 900 821  
Cooling Degree Days 0 0  
Month to date cooling degree days 0 0  
Year to date cooling degree days 1360 1349  
Moisture  
Dew Point 18 °F    
Average Humidity 61    
Maximum Humidity 75    
Minimum Humidity 47    
Precipitation  
Precipitation 0.00 in 0.07 in 1.17 in (1966)
Month to date precipitation 1.31 2.14  
Year to date precipitation 36.19 38.05  
Sea Level Pressure  
Sea Level Pressure 30.24 in    
Wind  
Wind Speed 7 mph (SW)    
Max Wind Speed 12 mph    
Max Gust Speed 15 mph    
Visibility 10 miles    
Events      
T = Trace of Precipitation, MM = Missing Value Source: NWS Daily Summary

Daily Weather History Graph

Daily Weather History Graph

Search for Another Location

Airport:

Trip Planner

Search our weather history database for the weather conditions in past years. The results will help you decide how hot, cold, wet, or windy it might be!

Date:

Astronomy

Nov. 25, 2013 Rise Set
Actual Time 7:12 AM CST 4:59 PM CST
Civil Twilight 6:43 AM CST 5:28 PM CST
Nautical Twilight 6:10 AM CST 6:01 PM CST
Astronomical Twilight 5:38 AM CST 6:32 PM CST
Moon No Moon Rise 12:32 PM CST (11/25)
Length of Visible Light 10h 44m
Length of Day
9h 46m
Waning Gibbous, 51% of the Moon is Illuminated
Nov 25
Waning Gibbous
Nov 25
Last Quarter
Dec 2
New
Dec 9
First Quarter
Dec 17
Full

Hourly Weather History & Observations

Time (CST) Temp. Windchill Dew Point Humidity Pressure Visibility Wind Dir Wind Speed Gust Speed Precip Events Conditions
12:53 AM 27.0 °F 18.7 °F 12.9 °F 56% 30.34 in 10.0 mi South 8.1 mph - N/A   Overcast
1:53 AM 27.0 °F 18.0 °F 14.0 °F 58% 30.31 in 10.0 mi South 9.2 mph - N/A   Overcast
2:53 AM 28.0 °F 19.3 °F 14.0 °F 56% 30.30 in 10.0 mi South 9.2 mph - N/A   Overcast
3:53 AM 28.0 °F 20.8 °F 15.1 °F 58% 30.29 in 10.0 mi South 6.9 mph - N/A   Overcast
4:53 AM 28.0 °F 21.7 °F 16.0 °F 61% 30.28 in 10.0 mi SSW 5.8 mph - N/A   Overcast
5:53 AM 28.9 °F 21.1 °F 16.0 °F 58% 30.26 in 10.0 mi South 8.1 mph - N/A   Overcast
6:53 AM 28.9 °F 21.1 °F 17.1 °F 61% 30.25 in 10.0 mi South 8.1 mph - N/A   Overcast
7:53 AM 28.9 °F 21.1 °F 17.1 °F 61% 30.27 in 10.0 mi SSW 8.1 mph - N/A   Overcast
8:53 AM 30.0 °F 21.1 °F 17.1 °F 59% 30.27 in 10.0 mi SSW 10.4 mph - N/A   Overcast
9:53 AM 30.9 °F 23.5 °F 17.1 °F 57% 30.27 in 10.0 mi WSW 8.1 mph - N/A   Overcast
10:53 AM 32.0 °F 24.8 °F 17.1 °F 54% 30.26 in 10.0 mi SW 8.1 mph - N/A   Overcast
11:53 AM 34.0 °F 26.6 °F 17.1 °F 50% 30.24 in 10.0 mi WSW 9.2 mph - N/A   Overcast
12:53 PM 34.0 °F 27.2 °F 17.1 °F 50% 30.22 in 10.0 mi SW 8.1 mph - N/A   Overcast
1:53 PM 35.1 °F 28.6 °F 18.0 °F 50% 30.20 in 10.0 mi West 8.1 mph - N/A   Overcast
2:53 PM 35.1 °F 28.6 °F 18.0 °F 50% 30.20 in 10.0 mi WSW 8.1 mph - N/A   Overcast
3:53 PM 35.1 °F 29.3 °F 18.0 °F 50% 30.20 in 10.0 mi SW 6.9 mph - N/A   Overcast
4:53 PM 34.0 °F 29.8 °F 18.0 °F 52% 30.19 in 10.0 mi SW 4.6 mph - N/A   Partly Cloudy
5:53 PM 32.0 °F 27.5 °F 19.0 °F 59% 30.21 in 10.0 mi SSW 4.6 mph - N/A   Clear
6:53 PM 30.0 °F 26.5 °F 19.0 °F 64% 30.22 in 10.0 mi SSW 3.5 mph - N/A   Clear
7:53 PM 30.0 °F 25.2 °F 19.9 °F 66% 30.22 in 10.0 mi SW 4.6 mph - N/A   Clear
8:53 PM 30.0 °F 25.2 °F 21.0 °F 69% 30.21 in 10.0 mi West 4.6 mph - N/A   Clear
9:53 PM 28.0 °F 24.2 °F 19.9 °F 72% 30.21 in 10.0 mi West 3.5 mph - N/A   Clear
10:53 PM 28.9 °F 23.9 °F 21.9 °F 75% 30.21 in 10.0 mi West 4.6 mph - N/A   Clear
11:53 PM 30.0 °F 23.2 °F 23.0 °F 75% 30.20 in 10.0 mi WNW 6.9 mph - N/A   Clear